Simultaneous Nadir Overpasses (SNOs) Predictions

Prediction of SNOs between METOP-A and TERRA Satellite Orbit:

Table of predicted SNOs for the next 14.0 days since TLE Epoch: 12/9/2017
Index Date (METOP-A) Time (METOP-A) Lat,Lon (METOP-A) SZA (METOP-A ) Date (TERRA) Time (TERRA) Lat,Lon (TERRA) SZA (TERRA ) Distance(km) Time Diff (sec)
1 12/11/2017 05:13:54 -81.38, -29.57 72.64 12/11/2017 05:14:15 -81.39, -29.44 72.62 2.33 21
2 12/11/2017 06:04:34 81.38, 137.93 107.38 12/11/2017 06:03:42 81.38, 137.91 107.35 0.79 52
3 12/14/2017 00:48:16 -81.38, 36.69 72.50 12/14/2017 00:48:29 -81.37, 36.70 72.50 0.64 13
4 12/14/2017 01:38:55 81.38,-155.45 107.56 12/14/2017 01:37:55 81.38,-155.58 107.52 2.12 60
5 12/16/2017 20:22:37 -81.38, 103.43 72.37 12/16/2017 20:22:40 -81.39, 103.49 72.35 1.47 3
6 12/16/2017 21:13:17 81.38, -89.14 107.65 12/16/2017 21:12:07 81.38, -89.19 107.61 1.22 70
7 12/19/2017 15:06:20 81.38, 2.36 107.66 12/19/2017 15:07:26 81.39, 2.17 107.67 3.18 66
8 12/19/2017 15:57:01 -81.38, 169.86 72.33 12/19/2017 15:56:53 -81.38, 169.76 72.34 1.65 8
9 12/22/2017 10:40:46 81.38, 68.46 107.60 12/22/2017 10:41:39 81.37, 68.31 107.60 2.81 53




NCC Satellite Simultaneous Nadir Overpasses (SNOs) Prediction Service
